Regional Weather Roundup
Issued by NWS

Home | Current Version | Previous Version | Text Only | Print | Product List | Glossary On
Versions: 1 2 3 4 5 6 7 8 9 10 11 12 13 14 15 16 17 18 19 20 21 22 23 24 25 26 27
000
ASUS45 KBOU 031007
RWRCO

WEATHER ROUNDUP FOR COLORADO
NATIONAL WEATHER SERVICE DENVER/BOULDER CO
400 AM MDT TUE MAY 03 2016

NOTE: "FAIR" INDICATES FEW OR NO CLOUDS BELOW 12000 FEET WITH NO
SIGNIFICANT WEATHER AND/OR OBSTRUCTIONS TO VISIBILITY.

COZ001>005-013-030-031-031100-
...NORTHWEST COLORADO...

CITY           SKY/WX    TMP DP  RH WIND       PRES   REMARKS
CRAIG          FAIR      28  24  85 CALM      30.24R
HAYDEN         FAIR      32  21  64 SE3       30.23S
MEEKER         FAIR      32  24  72 CALM      30.24S
MOUNT WERNER   NOT AVBL
STEAMBOAT SPGS FAIR      32  21  64 CALM      30.24S
WALDEN         FAIR      21  18  86 SE6       30.28S WCI  14
$$

COZ006>008-011-031100-
...WEST CENTRAL VALLEYS...

CITY           SKY/WX    TMP DP  RH WIND       PRES   REMARKS
GRAND JUNCTION FAIR      37  35  92 E3        30.17R
MONTROSE       FAIR      40  31  70 SE9       30.22R
EAGLE          FAIR      32  27  80 SE3       30.27R
RIFLE          FAIR      36  29  75 CALM      30.21R
DELTA          NOT AVBL
NUCLA          NOT AVBL
$$

COZ017>023-064>068-031100-
...SOUTHWEST COLORADO...

CITY           SKY/WX    TMP DP  RH WIND       PRES   REMARKS
DURANGO        FAIR      35  30  82 N5        30.20S WCI  31
CORTEZ         FAIR      32  30  92 E5        30.19S WCI  27
PAGOSA SPRINGS FAIR      32  32 100 CALM      30.23S
TELLURIDE      FAIR      31  27  87 SE5       30.30R WCI  26
WOLF CREEK PAS FAIR      23  19  86 NE8       30.35S WCI  14
$$

COZ009-010-012-014-032>034-037-058>063-031100-
...CENTRAL COLORADO...

CITY           SKY/WX    TMP DP  RH WIND       PRES   REMARKS
ASPEN          FAIR      30  24  78 SW5       30.25R WCI  25
BUENA VISTA    FAIR      36  23  60 W6        30.23S
COPPER MTN     NOT AVBL
BERTHOUD PASS  FAIR      16   7  67 N22G32    30.30S HAZE    WCI  -2
COTTONWOOD PAS FAIR      36  21  55 W12G22    30.26F
GUNNISON       FAIR      28  25  86 CALM      30.28R
KREMMLING      FAIR      25  19  80 CALM      30.28R
LEADVILLE      FAIR      24  16  71 NE8       30.27S WCI  15
MONARCH PASS   FAIR      23  21  93 MISG      30.42F
SALIDA         FAIR      34  26  73 W8        30.30S WCI  27
SUNLIGHT       FAIR      32  19  59 NW5         N/A  WCI  27
WILKERSON PASS FAIR      27  14  59 N10G21    30.31S WCI  17
$$

COZ069>075-031100-
...SAN LUIS VALLEY/SANGRE DE CRISTO MOUNTAINS...

CITY           SKY/WX    TMP DP  RH WIND       PRES   REMARKS
ALAMOSA        FAIR      29  28  96 E6        30.20R WCI  23
LA VETA PASS   FAIR      30  27  86 MISG      30.26R
SAGUACHE       FAIR      34  28  80 NW14      30.22S WCI  24
$$

COZ035-036-038>040-031100-
...NORTHERN COLORADO FRONT RANGE...

CITY           SKY/WX    TMP DP  RH WIND       PRES   REMARKS
DENVER INTL AP MOCLDY    43  27  53 N12       30.16R
DMNS CITY PARK   N/A     40  29  67 NE5G13    30.18R
AURORA         FAIR      40  28  62 W3        30.18R
FRONT RANGE AP NOT AVBL
ERIE MUNI ARPT MOCLDY    35  33  91 CALM      30.17R
BOULDER MUN AP CLOUDY    39  32  75 CALM      30.17R
CENTENNIAL     FAIR      38  27  64 SW7       30.17R
BROOMFIELD     MOCLDY    45  28  53 N5        30.18R
FORT COLLINS   FAIR      43  27  52 N9        30.17S
LONGMONT       FAIR      41  32  69 W3        30.19R
$$

COZ041-046-047-076>085-087-088-031100-
...PIKES PEAK/PALMER DIVIDE AND SOUTHERN FOOTHILLS...

CITY           SKY/WX    TMP DP  RH WIND       PRES   REMARKS
COLO. SPRINGS  FAIR      40  25  55 N15       30.18R
A. F. ACADEMY  FAIR      32  25  74 N10       30.18R WCI  24
SCHRIEVER AFB  NOT AVBL
ELLICOTT       CLOUDY   N/A N/A N/A NE17      30.15R
FALCON         FAIR      39  23  52 N12       30.19R
FORT CARSON    FAIR      37  27  66 NW12      30.15R
LIMON          CLOUDY    39  32  76 N10       30.15R
MONUMENT HILL  CLOUDY    36  27  69 N6        30.21R
TRINIDAD       FAIR      38  32  79 W9        30.14R
$$

COZ042>045-048>051-090-091-031100-
...NORTHEAST COLORADO...

CITY           SKY/WX    TMP DP  RH WIND       PRES   REMARKS
GREELEY ARPT   FAIR      41  30  65 NW13      30.14S
AKRON          FAIR      38  33  82 W12       30.08R
BURLINGTON     CLOUDY    43  34  70 W9        30.07S
WRAY           NOT AVBL
STERLING       FAIR      36  34  93 CALM      30.07S
HOLYOKE        NOT AVBL
FORT MORGAN    FAIR      40  31  72 W8        30.12R
$$

COZ086-089-092>099-031100-
...SOUTHEAST COLORADO...

CITY           SKY/WX    TMP DP  RH WIND       PRES   REMARKS
PUEBLO         FAIR      43  30  60 W6        30.12R
LA JUNTA       CLOUDY    45  37  73 W12       30.09R
LAMAR          CLOUDY    47  37  68 NW10      30.07R
SPRINGFIELD      N/A     44  38  79 NW3       30.06F
$$




USA.gov is the U.S. government's official web portal to all federal, state and local government web resources and services.